| time (UTC) | temp F | wind direction | speed MPH | gust MPH | rain 1hr in | rain 24hr in | rain mn in | humidity % | barometer mb |
| 20260901160943 | 95 | 282 | 1.0 | 3.0 | 0.00 | 0.00 | 0.00 | 56 | 1018.8 |
| 20260901160439 | 94 | 282 | 1.0 | 2.0 | 0.00 | 0.00 | 0.00 | 56 | 1019.1 |
| 20260901155938 | 94 | 276 | 2.0 | 3.0 | 0.00 | 0.00 | 0.00 | 57 | 1018.9 |
| 20260901155432 | 94 | 220 | 2.0 | 2.0 | 0.00 | 0.00 | 0.00 | 56 | 1018.9 |
| 20260901154929 | 93 | 293 | 0.0 | 2.0 | 0.00 | 0.00 | 0.00 | 59 | 1019.1 |
| 20260901154428 | 93 | 326 | 0.0 | 3.0 | 0.00 | 0.00 | 0.00 | 61 | 1019.0 |
| 20260901153923 | 93 | 226 | 0.0 | 2.0 | 0.00 | 0.00 | 0.00 | 56 | 1019.0 |
| 20260901153418 | 94 | 99 | 2.0 | 2.0 | 0.00 | 0.00 | 0.00 | 54 | 1019.2 |
| 20260901152918 | 93 | 49 | 0.0 | 2.0 | 0.00 | 0.00 | 0.00 | 56 | 1019.0 |
| 20260901152412 | 93 | 89 | 0.0 | 2.0 | 0.00 | 0.00 | 0.00 | 57 | 1019.3 |
| 20260901151912 | 92 | 135 | 1.0 | 2.0 | 0.00 | 0.00 | 0.00 | 59 | 1019.1 |
| 20260901151412 | 92 | 212 | 1.0 | 2.0 | 0.00 | 0.00 | 0.00 | 58 | 1019.2 |
| 20260901150912 | 91 | 144 | 3.0 | 3.0 | 0.00 | 0.00 | 0.00 | 60 | 1019.2 |
| 20260901150410 | 90 | 89 | 2.0 | 4.0 | 0.00 | 0.00 | 0.00 | 61 | 1019.1 |
| 20260901145907 | 91 | 153 | 0.0 | 2.0 | 0.00 | 0.00 | 0.00 | 64 | 1019.1 |
| 20260901145407 | 90 | 158 | 2.0 | 3.0 | 0.00 | 0.00 | 0.00 | 62 | 1019.2 |
| 20260901144902 | 90 | 113 | 0.0 | 2.0 | 0.00 | 0.00 | 0.00 | 62 | 1019.1 |
| 20260901144357 | 91 | 110 | 0.0 | 2.0 | 0.00 | 0.00 | 0.00 | 61 | 1019.2 |
| 20260901143853 | 91 | 141 | 0.0 | 3.0 | 0.00 | 0.00 | 0.00 | 61 | 1019.1 |
| 20260901143349 | 91 | 107 | 0.0 | 2.0 | 0.00 | 0.00 | 0.00 | 61 | 1019.3 |
| 20260901142845 | 90 | 240 | 0.0 | 2.0 | 0.00 | 0.00 | 0.00 | 62 | 1019.1 |
| 20260901142344 | 89 | 42 | 2.0 | 2.0 | 0.00 | 0.00 | 0.00 | 64 | 1019.2 |
| 20260901141839 | 90 | 137 | 0.0 | 3.0 | 0.00 | 0.00 | 0.00 | 64 | 1019.3 |
| 20260901141334 | 91 | 125 | 0.0 | 2.0 | 0.00 | 0.00 | 0.00 | 63 | 1019.2 |
| 20260901140833 | 91 | 87 | 0.0 | 2.0 | 0.00 | 0.00 | 0.00 | 63 | 1019.2 |
| 20260901140331 | 89 | 87 | 1.0 | 2.0 | 0.00 | 0.00 | 0.00 | 65 | 1019.3 |
| 20260901135827 | 88 | 15 | 0.0 | 2.0 | 0.00 | 0.00 | 0.00 | 67 | 1019.2 |
| 20260901135322 | 87 | 60 | 1.0 | 3.0 | 0.00 | 0.00 | 0.00 | 69 | 1019.4 |
| 20260901134818 | 87 | 57 | 0.0 | 3.0 | 0.00 | 0.00 | 0.00 | 69 | 1019.3 |
| 20260901134313 | 87 | 93 | 2.0 | 3.0 | 0.00 | 0.00 | 0.00 | 70 | 1019.3 |
| 20260901133813 | 85 | 269 | 0.0 | 2.0 | 0.00 | 0.00 | 0.00 | 72 | 1019.4 |
| 20260901133312 | 85 | 89 | 2.0 | 3.0 | 0.00 | 0.00 | 0.00 | 73 | 1019.5 |
| 20260901132810 | 86 | 104 | 2.0 | 2.0 | 0.00 | 0.00 | 0.00 | 72 | 1019.3 |
| 20260901132307 | 85 | 68 | 0.0 | 1.0 | 0.00 | 0.00 | 0.00 | 73 | 1019.3 |
| 20260901131806 | 85 | 82 | 2.0 | 3.0 | 0.00 | 0.00 | 0.00 | 74 | 1019.3 |
| 20260901131305 | 86 | 99 | 1.0 | 2.0 | 0.00 | 0.00 | 0.00 | 73 | 1019.4 |
| 20260901130801 | 84 | 69 | 0.0 | 2.0 | 0.00 | 0.00 | 0.00 | 76 | 1019.2 |
| 20260901130300 | 83 | 111 | 1.0 | 3.0 | 0.00 | 0.00 | 0.00 | 78 | 1019.2 |
| 20260901125759 | 82 | 79 | 2.0 | 3.0 | 0.00 | 0.00 | 0.00 | 79 | 1019.3 |
| 20260901125258 | 83 | 103 | 3.0 | 3.0 | 0.00 | 0.00 | 0.00 | 79 | 1019.0 |
| 20260901124753 | 82 | 101 | 0.0 | 2.0 | 0.00 | 0.00 | 0.00 | 80 | 1018.9 |
| 20260901124248 | 82 | 76 | 2.0 | 2.0 | 0.00 | 0.00 | 0.00 | 81 | 1019.0 |
| 20260901123748 | 81 | 64 | 1.0 | 3.0 | 0.00 | 0.00 | 0.00 | 83 | 1019.1 |
| 20260901123243 | 80 | 108 | 2.0 | 2.0 | 0.00 | 0.00 | 0.00 | 85 | 1019.0 |
| 20260901122742 | 78 | 96 | 2.0 | 3.0 | 0.00 | 0.00 | 0.00 | 89 | 1019.0 |
| 20260901122237 | 76 | 71 | 2.0 | 3.0 | 0.00 | 0.00 | 0.00 | 95 | 1018.8 |
| 20260901121736 | 75 | 96 | 2.0 | 3.0 | 0.00 | 0.00 | 0.00 | 97 | 1018.7 |
| 20260901121232 | 74 | 83 | 2.0 | 3.0 | 0.00 | 0.00 | 0.00 | 97 | 1018.9 |
| 20260901120731 | 74 | 56 | 2.0 | 2.0 | 0.00 | 0.00 | 0.00 | 97 | 1018.7 |
| 20260901120226 | 74 | 42 | 1.0 | 3.0 | 0.00 | 0.00 | 0.00 | 97 | 1018.7 |
| 20260901115721 | 74 | 108 | 1.0 | 2.0 | 0.00 | 0.00 | 0.00 | 97 | 1018.4 |
| 20260901115217 | 73 | 95 | 0.0 | 2.0 | 0.00 | 0.00 | 0.00 | 97 | 1018.6 |
| 20260901114715 | 73 | 63 | 0.0 | 2.0 | 0.00 | 0.00 | 0.00 | 97 | 1018.4 |
| 20260901114215 | 73 | 64 | 0.0 | 2.0 | 0.00 | 0.00 | 0.00 | 97 | 1018.4 |
| 20260901113713 | 73 | 77 | 1.0 | 2.0 | 0.00 | 0.00 | 0.00 | 97 | 1018.3 |
| 20260901113209 | 73 | 72 | 1.0 | 2.0 | 0.00 | 0.00 | 0.00 | 97 | 1018.2 |
| 20260901112708 | 73 | 46 | 1.0 | 2.0 | 0.00 | 0.00 | 0.00 | 97 | 1018.1 |
| 20260901112203 | 73 | 60 | 1.0 | 2.0 | 0.00 | 0.00 | 0.00 | 97 | 1018.1 |
| 20260901111702 | 73 | 79 | 2.0 | 2.0 | 0.00 | 0.00 | 0.00 | 97 | 1018.0 |
| 20260901111201 | 73 | 85 | 2.0 | 2.0 | 0.00 | 0.00 | 0.00 | 97 | 1018.0 |
| 20260901110656 | 73 | 64 | 1.0 | 2.0 | 0.00 | 0.00 | 0.00 | 97 | 1017.9 |
| 20260901110151 | 73 | 89 | 1.0 | 2.0 | 0.00 | 0.00 | 0.00 | 97 | 1017.8 |
| 20260901105648 | 73 | 78 | 2.0 | 2.0 | 0.00 | 0.00 | 0.00 | 97 | 1017.5 |
| 20260901105147 | 73 | 67 | 2.0 | 2.0 | 0.00 | 0.00 | 0.00 | 97 | 1017.6 |
| 20260901104644 | 73 | 64 | 0.0 | 2.0 | 0.00 | 0.00 | 0.00 | 97 | 1017.8 |
| 20260901104139 | 73 | 77 | 2.0 | 2.0 | 0.00 | 0.00 | 0.00 | 97 | 1017.5 |
| 20260901103638 | 73 | 61 | 0.0 | 2.0 | 0.00 | 0.00 | 0.00 | 97 | 1017.9 |
| 20260901103134 | 73 | 72 | 0.0 | 2.0 | 0.00 | 0.00 | 0.00 | 97 | 1017.8 |
| 20260901102633 | 73 | 62 | 1.0 | 2.0 | 0.00 | 0.00 | 0.00 | 97 | 1017.8 |
| 20260901102128 | 73 | 77 | 1.0 | 2.0 | 0.00 | 0.00 | 0.00 | 96 | 1017.5 |
| 20260901101624 | 73 | 87 | 1.0 | 2.0 | 0.00 | 0.00 | 0.00 | 96 | 1017.6 |
| 20260901101123 | 74 | 93 | 2.0 | 2.0 | 0.00 | 0.00 | 0.00 | 96 | 1017.4 |
| 20260901100623 | 74 | 71 | 0.0 | 2.0 | 0.00 | 0.00 | 0.00 | 96 | 1017.5 |
| 20260901100118 | 74 | 67 | 2.0 | 2.0 | 0.00 | 0.00 | 0.00 | 96 | 1017.3 |
| 20260901095616 | 74 | 65 | 1.0 | 2.0 | 0.00 | 0.00 | 0.00 | 96 | 1017.5 |
| 20260901095114 | 74 | 80 | 1.0 | 2.0 | 0.00 | 0.00 | 0.00 | 96 | 1017.4 |
| 20260901094609 | 74 | 75 | 0.0 | 2.0 | 0.00 | 0.00 | 0.00 | 96 | 1017.4 |
| 20260901094108 | 74 | 89 | 0.0 | 2.0 | 0.00 | 0.00 | 0.00 | 96 | 1017.3 |
| 20260901093603 | 74 | 76 | 1.0 | 2.0 | 0.00 | 0.00 | 0.00 | 96 | 1017.3 |
| 20260901093058 | 74 | 37 | 0.0 | 2.0 | 0.00 | 0.00 | 0.00 | 96 | 1017.4 |
| 20260901092554 | 74 | 72 | 0.0 | 2.0 | 0.00 | 0.00 | 0.00 | 96 | 1017.3 |
| 20260901092050 | 74 | 81 | 0.0 | 2.0 | 0.00 | 0.00 | 0.00 | 96 | 1017.2 |
| 20260901091545 | 74 | 61 | 0.0 | 2.0 | 0.00 | 0.00 | 0.00 | 96 | 1017.2 |
| 20260901091045 | 74 | 44 | 0.0 | 2.0 | 0.00 | 0.00 | 0.00 | 96 | 1017.4 |
| 20260901090545 | 74 | 89 | 0.0 | 2.0 | 0.00 | 0.00 | 0.00 | 96 | 1017.1 |
| 20260901090041 | 74 | 89 | 0.0 | 2.0 | 0.00 | 0.00 | 0.00 | 96 | 1017.3 |
| 20260901085536 | 74 | 41 | 0.0 | 2.0 | 0.00 | 0.00 | 0.00 | 96 | 1017.3 |
| 20260901085032 | 75 | 91 | 1.0 | 2.0 | 0.00 | 0.00 | 0.00 | 96 | 1017.3 |
| 20260901084528 | 74 | 76 | 0.0 | 2.0 | 0.00 | 0.00 | 0.00 | 96 | 1017.3 |
| 20260901084025 | 75 | 78 | 1.0 | 2.0 | 0.00 | 0.00 | 0.00 | 95 | 1017.1 |
| 20260901083524 | 75 | 62 | 2.0 | 2.0 | 0.00 | 0.00 | 0.00 | 95 | 1017.1 |
| 20260901083022 | 75 | 94 | 1.0 | 2.0 | 0.00 | 0.00 | 0.00 | 95 | 1017.0 |
| 20260901082517 | 75 | 74 | 0.0 | 2.0 | 0.00 | 0.00 | 0.00 | 95 | 1017.1 |
| 20260901082013 | 75 | 66 | 1.0 | 2.0 | 0.00 | 0.00 | 0.00 | 95 | 1017.1 |
| 20260901081508 | 75 | 74 | 1.0 | 2.0 | 0.00 | 0.00 | 0.00 | 95 | 1016.9 |
| 20260901081003 | 75 | 74 | 2.0 | 2.0 | 0.00 | 0.00 | 0.00 | 95 | 1016.9 |
| 20260901080502 | 75 | 81 | 2.0 | 2.0 | 0.00 | 0.00 | 0.00 | 95 | 1017.2 |
| 20260901080001 | 75 | 79 | 0.0 | 2.0 | 0.00 | 0.00 | 0.00 | 95 | 1016.8 |
| 20260901075457 | 75 | 82 | 0.0 | 2.0 | 0.00 | 0.00 | 0.00 | 95 | 1017.1 |
| 20260901074956 | 75 | 69 | 1.0 | 2.0 | 0.00 | 0.00 | 0.00 | 95 | 1016.9 |
| 20260901074451 | 75 | 51 | 1.0 | 2.0 | 0.00 | 0.00 | 0.00 | 95 | 1016.9 |
| 20260901073946 | 75 | 84 | 1.0 | 2.0 | 0.00 | 0.00 | 0.00 | 94 | 1016.9 |
| 20260901073443 | 75 | 60 | 0.0 | 2.0 | 0.00 | 0.00 | 0.00 | 94 | 1017.0 |
| 20260901072943 | 75 | 59 | 0.0 | 2.0 | 0.00 | 0.00 | 0.00 | 94 | 1017.0 |
| 20260901072438 | 75 | 56 | 2.0 | 2.0 | 0.00 | 0.00 | 0.00 | 94 | 1017.0 |
| 20260901071933 | 75 | 53 | 1.0 | 2.0 | 0.00 | 0.00 | 0.00 | 94 | 1017.0 |
| 20260901071432 | 75 | 81 | 0.0 | 2.0 | 0.00 | 0.00 | 0.00 | 94 | 1017.0 |
| 20260901070931 | 76 | 62 | 2.0 | 2.0 | 0.00 | 0.00 | 0.00 | 94 | 1016.9 |
| 20260901070427 | 76 | 89 | 0.0 | 2.0 | 0.00 | 0.00 | 0.00 | 94 | 1017.1 |
| 20260901065925 | 76 | 71 | 1.0 | 2.0 | 0.00 | 0.00 | 0.00 | 94 | 1017.1 |
| 20260901065421 | 76 | 67 | 1.0 | 2.0 | 0.00 | 0.00 | 0.00 | 93 | 1017.2 |
| 20260901064916 | 76 | 65 | 1.0 | 1.0 | 0.00 | 0.00 | 0.00 | 94 | 1017.0 |
| 20260901064412 | 76 | 82 | 0.0 | 2.0 | 0.00 | 0.00 | 0.00 | 93 | 1017.0 |
| 20260901063909 | 76 | 59 | 1.0 | 2.0 | 0.00 | 0.00 | 0.00 | 93 | 1017.1 |
| 20260901063406 | 76 | 74 | 0.0 | 2.0 | 0.00 | 0.00 | 0.00 | 93 | 1017.1 |
| 20260901062902 | 76 | 60 | 0.0 | 2.0 | 0.00 | 0.00 | 0.00 | 93 | 1016.9 |
| 20260901061853 | 76 | 54 | 0.0 | 2.0 | 0.00 | 0.00 | 0.00 | 92 | 1017.2 |
| 20260901061348 | 76 | 70 | 0.0 | 2.0 | 0.00 | 0.00 | 0.00 | 92 | 1017.0 |
| 20260901060843 | 76 | 74 | 1.0 | 2.0 | 0.00 | 0.00 | 0.00 | 92 | 1017.2 |
| 20260901060340 | 76 | 56 | 2.0 | 3.0 | 0.00 | 0.00 | 0.00 | 92 | 1017.2 |
| 20260901055838 | 76 | 75 | 1.0 | 2.0 | 0.00 | 0.00 | 0.00 | 92 | 1017.2 |
| 20260901055335 | 76 | 95 | 1.0 | 3.0 | 0.00 | 0.00 | 0.00 | 92 | 1017.1 |
| 20260901054831 | 76 | 64 | 1.0 | 2.0 | 0.00 | 0.00 | 0.00 | 91 | 1017.1 |
| 20260901054329 | 76 | 61 | 0.0 | 2.0 | 0.00 | 0.00 | 0.00 | 91 | 1017.1 |
| 20260901053824 | 76 | 108 | 0.0 | 2.0 | 0.00 | 0.00 | 0.00 | 90 | 1017.1 |
| 20260901053319 | 76 | 88 | 1.0 | 2.0 | 0.00 | 0.00 | 0.00 | 90 | 1017.1 |
| 20260901052814 | 76 | 62 | 0.0 | 2.0 | 0.00 | 0.00 | 0.00 | 89 | 1017.1 |
| 20260901052310 | 77 | 71 | 2.0 | 2.0 | 0.00 | 0.00 | 0.00 | 89 | 1017.1 |
| 20260901051808 | 77 | 58 | 0.0 | 2.0 | 0.00 | 0.00 | 0.00 | 89 | 1017.4 |
| 20260901051304 | 77 | 34 | 0.0 | 2.0 | 0.00 | 0.00 | 0.00 | 88 | 1017.2 |
| 20260901050759 | 77 | 51 | 1.0 | 2.0 | 0.00 | 0.00 | 0.00 | 88 | 1017.1 |
| 20260901050254 | 77 | 56 | 2.0 | 2.0 | 0.00 | 0.00 | 0.00 | 88 | 1017.3 |
| 20260901045750 | 77 | 37 | 0.0 | 2.0 | 0.00 | 0.00 | 0.00 | 87 | 1017.0 |
| 20260901045244 | 77 | 79 | 1.0 | 2.0 | 0.00 | 0.00 | 0.00 | 87 | 1017.2 |
| 20260901044740 | 77 | 74 | 0.0 | 2.0 | 0.00 | 0.00 | 0.00 | 87 | 1017.1 |
| 20260901044236 | 77 | 59 | 0.0 | 2.0 | 0.00 | 0.00 | 0.00 | 87 | 1017.2 |
| 20260901043731 | 77 | 62 | 1.0 | 3.0 | 0.00 | 0.00 | 0.00 | 86 | 1017.1 |
| 20260901043226 | 77 | 84 | 0.0 | 2.0 | 0.00 | 0.00 | 0.00 | 86 | 1017.2 |
| 20260901042726 | 77 | 60 | 0.0 | 2.0 | 0.00 | 0.00 | 0.00 | 86 | 1017.1 |
| 20260901042220 | 77 | 59 | 1.0 | 2.0 | 0.00 | 0.00 | 0.00 | 85 | 1017.0 |
| 20260901041717 | 78 | 78 | 2.0 | 2.0 | 0.00 | 0.00 | 0.00 | 85 | 1017.0 |
| 20260901041216 | 78 | 53 | 0.0 | 2.0 | 0.00 | 0.00 | 0.00 | 85 | 1017.0 |
| 20260901040711 | 78 | 49 | 0.0 | 2.0 | 0.00 | 0.00 | 0.00 | 84 | 1017.0 |
| 20260901040210 | 78 | 77 | 0.0 | 2.0 | 0.00 | 0.00 | 0.00 | 84 | 1017.1 |
| 20260901035708 | 78 | 74 | 0.0 | 2.0 | 0.00 | 0.00 | 0.00 | 84 | 1017.2 |
| 20260901035208 | 78 | 60 | 1.0 | 2.0 | 0.00 | 0.00 | 0.00 | 83 | 1017.2 |
| 20260901034707 | 78 | 49 | 1.0 | 2.0 | 0.00 | 0.00 | 0.00 | 83 | 1017.0 |
| 20260901034202 | 78 | 55 | 1.0 | 2.0 | 0.00 | 0.00 | 0.00 | 82 | 1016.9 |
| 20260901033701 | 78 | 57 | 2.0 | 2.0 | 0.00 | 0.00 | 0.00 | 83 | 1017.0 |
| 20260901033155 | 78 | 62 | 1.0 | 2.0 | 0.00 | 0.00 | 0.00 | 82 | 1016.9 |
| 20260901032654 | 79 | 67 | 0.0 | 2.0 | 0.00 | 0.00 | 0.00 | 82 | 1016.9 |
| 20260901032148 | 79 | 92 | 0.0 | 2.0 | 0.00 | 0.00 | 0.00 | 81 | 1016.8 |
| 20260901031644 | 79 | 76 | 1.0 | 2.0 | 0.00 | 0.00 | 0.00 | 81 | 1016.7 |
| 20260901031140 | 79 | 45 | 1.0 | 2.0 | 0.00 | 0.00 | 0.00 | 81 | 1016.8 |
| 20260901030634 | 79 | 50 | 0.0 | 2.0 | 0.00 | 0.00 | 0.00 | 80 | 1016.9 |
| 20260901030129 | 79 | 78 | 0.0 | 2.0 | 0.00 | 0.00 | 0.00 | 80 | 1016.9 |
| 20260901025629 | 79 | 51 | 1.0 | 2.0 | 0.00 | 0.00 | 0.00 | 79 | 1016.8 |
| 20260901025125 | 80 | 60 | 0.0 | 2.0 | 0.00 | 0.00 | 0.00 | 78 | 1016.8 |
| 20260901024624 | 80 | 82 | 2.0 | 2.0 | 0.00 | 0.00 | 0.00 | 78 | 1016.8 |
| 20260901024123 | 80 | 62 | 1.0 | 2.0 | 0.00 | 0.00 | 0.00 | 78 | 1016.6 |
| 20260901023622 | 80 | 68 | 0.0 | 2.0 | 0.00 | 0.00 | 0.00 | 78 | 1016.6 |
| 20260901023117 | 80 | 49 | 0.0 | 1.0 | 0.00 | 0.00 | 0.00 | 79 | 1016.8 |
| 20260901022613 | 80 | 80 | 1.0 | 2.0 | 0.00 | 0.00 | 0.00 | 77 | 1016.6 |
| 20260901022108 | 80 | 81 | 1.0 | 2.0 | 0.00 | 0.00 | 0.00 | 77 | 1016.7 |
| 20260901021603 | 80 | 61 | 0.0 | 2.0 | 0.00 | 0.00 | 0.00 | 76 | 1016.4 |
| 20260901021058 | 81 | 84 | 0.0 | 2.0 | 0.00 | 0.00 | 0.00 | 76 | 1016.4 |
| 20260901020554 | 81 | 71 | 0.0 | 2.0 | 0.00 | 0.00 | 0.00 | 75 | 1016.3 |
| 20260901020049 | 81 | 74 | 0.0 | 2.0 | 0.00 | 0.00 | 0.00 | 75 | 1016.4 |
| 20260901015544 | 81 | 66 | 0.0 | 2.0 | 0.00 | 0.00 | 0.00 | 74 | 1016.3 |
| 20260901015044 | 82 | 19 | 0.0 | 2.0 | 0.00 | 0.00 | 0.00 | 74 | 1016.3 |
| 20260901014539 | 82 | 60 | 1.0 | 2.0 | 0.00 | 0.00 | 0.00 | 73 | 1016.3 |
| 20260901014035 | 82 | 72 | 0.0 | 2.0 | 0.00 | 0.00 | 0.00 | 72 | 1016.4 |
| 20260901013531 | 82 | 87 | 0.0 | 2.0 | 0.00 | 0.00 | 0.00 | 72 | 1016.2 |
| 20260901013027 | 82 | 89 | 0.0 | 1.0 | 0.00 | 0.00 | 0.00 | 71 | 1016.1 |
| 20260901012526 | 82 | 50 | 1.0 | 2.0 | 0.00 | 0.00 | 0.00 | 71 | 1016.0 |
| 20260901012022 | 83 | 68 | 1.0 | 2.0 | 0.00 | 0.00 | 0.00 | 71 | 1016.0 |
| 20260901011518 | 83 | 65 | 0.0 | 2.0 | 0.00 | 0.00 | 0.00 | 71 | 1016.0 |
| 20260901011015 | 83 | 301 | 0.0 | 2.0 | 0.00 | 0.00 | 0.00 | 72 | 1016.0 |
| 20260901010511 | 83 | 60 | 1.0 | 2.0 | 0.00 | 0.00 | 0.00 | 70 | 1016.1 |
| 20260901010011 | 83 | 70 | 1.0 | 2.0 | 0.00 | 0.00 | 0.00 | 70 | 1016.0 |
| 20260901005510 | 84 | 99 | 0.0 | 2.0 | 0.00 | 0.00 | 0.00 | 69 | 1015.7 |
| 20260901005006 | 84 | 56 | 1.0 | 2.0 | 0.00 | 0.00 | 0.00 | 69 | 1015.8 |
| 20260901004505 | 84 | 51 | 0.0 | 2.0 | 0.00 | 0.00 | 0.00 | 67 | 1015.7 |
| 20260901004000 | 85 | 61 | 0.0 | 2.0 | 0.00 | 0.00 | 0.00 | 67 | 1015.8 |
| 20260901003455 | 85 | 63 | 0.0 | 2.0 | 0.00 | 0.00 | 0.00 | 68 | 1015.7 |
| 20260901002954 | 86 | 74 | 0.0 | 2.0 | 0.00 | 0.00 | 0.00 | 65 | 1015.8 |
| 20260901002453 | 86 | 70 | 1.0 | 2.0 | 0.00 | 0.00 | 0.00 | 64 | 1015.8 |
| 20260901001948 | 87 | 108 | 0.0 | 2.0 | 0.00 | 0.00 | 0.00 | 63 | 1015.8 |
| 20260901001443 | 87 | 79 | 0.0 | 2.0 | 0.00 | 0.00 | 0.00 | 62 | 1015.7 |
| 20260901000938 | 87 | 75 | 0.0 | 2.0 | 0.00 | 0.00 | 0.00 | 61 | 1015.7 |
| 20260901000435 | 88 | 62 | 0.0 | 2.0 | 0.00 | 0.00 | 0.00 | 60 | 1015.8 |
| 20260831235932 | 88 | 61 | 1.0 | 1.0 | 0.00 | 0.00 | 0.00 | 59 | 1016.0 |
| 20260831235428 | 89 | 61 | 0.0 | 1.0 | 0.00 | 0.00 | 0.00 | 57 | 1015.8 |
| 20260831234924 | 90 | 89 | 0.0 | 1.0 | 0.00 | 0.00 | 0.00 | 56 | 1015.9 |
| 20260831234423 | 90 | 24 | 1.0 | 2.0 | 0.00 | 0.00 | 0.00 | 56 | 1015.9 |
| 20260831233919 | 91 | 89 | 0.0 | 1.0 | 0.00 | 0.00 | 0.00 | 59 | 1016.0 |
| 20260831233414 | 91 | 44 | 0.0 | 2.0 | 0.00 | 0.00 | 0.00 | 53 | 1015.9 |
| 20260831232909 | 91 | 79 | 0.0 | 2.0 | 0.00 | 0.00 | 0.00 | 53 | 1016.2 |
| 20260831232405 | 92 | 57 | 0.0 | 2.0 | 0.00 | 0.00 | 0.00 | 53 | 1016.1 |
| 20260831231901 | 92 | 53 | 0.0 | 1.0 | 0.00 | 0.00 | 0.00 | 54 | 1016.2 |
| 20260831231357 | 93 | 160 | 0.0 | 1.0 | 0.00 | 0.00 | 0.00 | 51 | 1016.1 |
| 20260831230852 | 93 | 99 | 0.0 | 1.0 | 0.00 | 0.00 | 0.00 | 48 | 1016.1 |
| 20260831230347 | 93 | 89 | 0.0 | 1.0 | 0.00 | 0.00 | 0.00 | 49 | 1016.1 |
| 20260831225841 | 94 | 269 | 0.0 | 2.0 | 0.00 | 0.00 | 0.00 | 45 | 1016.3 |
| 20260831225336 | 94 | 317 | 0.0 | 2.0 | 0.00 | 0.00 | 0.00 | 45 | 1016.2 |
| 20260831224831 | 94 | 250 | 0.0 | 2.0 | 0.00 | 0.00 | 0.00 | 44 | 1016.3 |
| 20260831224326 | 94 | 135 | 0.0 | 2.0 | 0.00 | 0.00 | 0.00 | 47 | 1016.3 |
| 20260831223821 | 95 | 31 | 1.0 | 2.0 | 0.00 | 0.00 | 0.00 | 45 | 1016.3 |
| 20260831223317 | 95 | 82 | 1.0 | 2.0 | 0.00 | 0.00 | 0.00 | 44 | 1016.2 |
| 20260831222814 | 96 | 41 | 0.0 | 2.0 | 0.00 | 0.00 | 0.00 | 42 | 1016.2 |
| 20260831222309 | 98 | 293 | 0.0 | 1.0 | 0.00 | 0.00 | 0.00 | 41 | 1016.4 |
| 20260831221804 | 98 | 245 | 0.0 | 2.0 | 0.00 | 0.00 | 0.00 | 40 | 1016.5 |
| 20260831221301 | 99 | 280 | 3.0 | 3.0 | 0.00 | 0.00 | 0.00 | 41 | 1016.4 |
| 20260831220800 | 99 | 269 | 0.0 | 1.0 | 0.00 | 0.00 | 0.00 | 41 | 1016.4 |
| 20260831220255 | 99 | 319 | 0.0 | 2.0 | 0.00 | 0.00 | 0.00 | 41 | 1016.3 |
| 20260831215749 | 98 | 269 | 1.0 | 2.0 | 0.00 | 0.00 | 0.00 | 43 | 1016.4 |
| 20260831215246 | 99 | 132 | 2.0 | 2.0 | 0.00 | 0.00 | 0.00 | 39 | 1016.5 |
| 20260831214742 | 98 | 324 | 1.0 | 1.0 | 0.00 | 0.00 | 0.00 | 41 | 1016.5 |
| 20260831214239 | 99 | 250 | 0.0 | 2.0 | 0.00 | 0.00 | 0.00 | 39 | 1016.4 |
| 20260831213735 | 98 | 114 | 0.0 | 2.0 | 0.00 | 0.00 | 0.00 | 40 | 1016.5 |
| 20260831213231 | 98 | 191 | 0.0 | 3.0 | 0.00 | 0.00 | 0.00 | 40 | 1016.5 |
| 20260831212726 | 98 | 95 | 0.0 | 3.0 | 0.00 | 0.00 | 0.00 | 41 | 1016.5 |
| 20260831212223 | 98 | 234 | 0.0 | 4.0 | 0.00 | 0.00 | 0.00 | 43 | 1016.7 |
| 20260831211721 | 98 | 271 | 2.0 | 2.0 | 0.00 | 0.00 | 0.00 | 42 | 1016.7 |
| 20260831211217 | 99 | 221 | 1.0 | 3.0 | 0.00 | 0.00 | 0.00 | 41 | 1016.8 |
| 20260831210716 | 98 | 245 | 0.0 | 2.0 | 0.00 | 0.00 | 0.00 | 41 | 1016.7 |
| 20260831210213 | 99 | 251 | 0.0 | 2.0 | 0.00 | 0.00 | 0.00 | 41 | 1016.8 |
| 20260831205712 | 99 | 148 | 2.0 | 3.0 | 0.00 | 0.00 | 0.00 | 42 | 1017.0 |
| 20260831205208 | 99 | 276 | 0.0 | 3.0 | 0.00 | 0.00 | 0.00 | 43 | 1016.6 |
| 20260831204703 | 99 | 256 | 0.0 | 2.0 | 0.00 | 0.00 | 0.00 | 44 | 1016.8 |
| 20260831204202 | 98 | 129 | 0.0 | 2.0 | 0.00 | 0.00 | 0.00 | 42 | 1016.8 |
| 20260831203701 | 97 | 241 | 3.0 | 3.0 | 0.00 | 0.00 | 0.00 | 44 | 1016.9 |
| 20260831203155 | 97 | 103 | 2.0 | 2.0 | 0.00 | 0.00 | 0.00 | 43 | 1016.8 |
| 20260831202654 | 97 | 332 | 1.0 | 2.0 | 0.00 | 0.00 | 0.00 | 43 | 1016.9 |
| 20260831202149 | 97 | 0 | 2.0 | 2.0 | 0.00 | 0.00 | 0.00 | 44 | 1017.0 |
| 20260831201648 | 97 | 331 | 0.0 | 2.0 | 0.00 | 0.00 | 0.00 | 44 | 1017.1 |
| 20260831201143 | 97 | 102 | 0.0 | 2.0 | 0.00 | 0.00 | 0.00 | 42 | 1017.1 |
| 20260831200639 | 98 | 340 | 1.0 | 2.0 | 0.00 | 0.00 | 0.00 | 41 | 1017.2 |
| 20260831200138 | 98 | 307 | 0.0 | 2.0 | 0.00 | 0.00 | 0.00 | 45 | 1017.2 |
| 20260831195634 | 97 | 106 | 1.0 | 2.0 | 0.00 | 0.00 | 0.00 | 41 | 1017.3 |
| 20260831195129 | 97 | 205 | 0.0 | 2.0 | 0.00 | 0.00 | 0.00 | 44 | 1017.4 |
| 20260831194624 | 97 | 103 | 1.0 | 2.0 | 0.00 | 0.00 | 0.00 | 45 | 1017.5 |
| 20260831194119 | 97 | 157 | 0.0 | 2.0 | 0.00 | 0.00 | 0.00 | 47 | 1017.5 |
| 20260831193614 | 97 | 240 | 0.0 | 5.0 | 0.00 | 0.00 | 0.00 | 46 | 1017.6 |
| 20260831193109 | 96 | 336 | 0.0 | 4.0 | 0.00 | 0.00 | 0.00 | 45 | 1017.8 |
| 20260831192604 | 97 | 328 | 1.0 | 3.0 | 0.00 | 0.00 | 0.00 | 44 | 1017.8 |
| 20260831192059 | 98 | 202 | 2.0 | 2.0 | 0.00 | 0.00 | 0.00 | 43 | 1017.8 |
| 20260831191555 | 98 | 315 | 0.0 | 3.0 | 0.00 | 0.00 | 0.00 | 43 | 1017.8 |
| 20260831191051 | 97 | 73 | 0.0 | 2.0 | 0.00 | 0.00 | 0.00 | 45 | 1017.6 |
| 20260831190546 | 97 | 129 | 0.0 | 2.0 | 0.00 | 0.00 | 0.00 | 45 | 1017.9 |
| 20260831190044 | 96 | 88 | 1.0 | 3.0 | 0.00 | 0.00 | 0.00 | 45 | 1017.9 |
| 20260831185540 | 96 | 129 | 3.0 | 3.0 | 0.00 | 0.00 | 0.00 | 45 | 1018.0 |
| 20260831185036 | 96 | 135 | 3.0 | 3.0 | 0.00 | 0.00 | 0.00 | 44 | 1018.0 |
| 20260831184535 | 96 | 113 | 1.0 | 3.0 | 0.00 | 0.00 | 0.00 | 44 | 1018.0 |
| 20260831184031 | 95 | 308 | 1.0 | 3.0 | 0.00 | 0.00 | 0.00 | 50 | 1018.0 |
| 20260831183530 | 95 | 135 | 1.0 | 4.0 | 0.00 | 0.00 | 0.00 | 47 | 1018.1 |
| 20260831183025 | 96 | 220 | 4.0 | 4.0 | 0.00 | 0.00 | 0.00 | 47 | 1018.1 |
| 20260831182525 | 96 | 285 | 2.0 | 3.0 | 0.00 | 0.00 | 0.00 | 50 | 1018.4 |
| 20260831182020 | 95 | 235 | 2.0 | 3.0 | 0.00 | 0.00 | 0.00 | 48 | 1018.4 |
| 20260831181515 | 95 | 345 | 2.0 | 3.0 | 0.00 | 0.00 | 0.00 | 47 | 1018.4 |
| 20260831181015 | 95 | 121 | 1.0 | 4.0 | 0.00 | 0.00 | 0.00 | 47 | 1018.4 |
| 20260831180515 | 95 | 206 | 0.0 | 2.0 | 0.00 | 0.00 | 0.00 | 48 | 1018.6 |
| 20260831180010 | 96 | 86 | 0.0 | 2.0 | 0.00 | 0.00 | 0.00 | 47 | 1018.5 |
| 20260831175506 | 95 | 276 | 0.0 | 3.0 | 0.00 | 0.00 | 0.00 | 47 | 1018.6 |
| 20260831175001 | 94 | 278 | 1.0 | 3.0 | 0.00 | 0.00 | 0.00 | 47 | 1018.7 |
| 20260831174456 | 95 | 286 | 2.0 | 4.0 | 0.00 | 0.00 | 0.00 | 49 | 1018.9 |
| 20260831173956 | 94 | 226 | 0.0 | 4.0 | 0.00 | 0.00 | 0.00 | 52 | 1019.0 |
| 20260831173454 | 94 | 19 | 0.0 | 2.0 | 0.00 | 0.00 | 0.00 | 49 | 1018.9 |
| 20260831172951 | 95 | 14 | 1.0 | 2.0 | 0.00 | 0.00 | 0.00 | 51 | 1019.0 |
| 20260831172447 | 95 | 249 | 0.0 | 3.0 | 0.00 | 0.00 | 0.00 | 56 | 1019.1 |
| 20260831171942 | 94 | 139 | 2.0 | 4.0 | 0.00 | 0.00 | 0.00 | 51 | 1019.1 |
| 20260831171437 | 94 | 232 | 2.0 | 4.0 | 0.00 | 0.00 | 0.00 | 50 | 1019.1 |
| 20260831170934 | 95 | 232 | 1.0 | 3.0 | 0.00 | 0.00 | 0.00 | 50 | 1019.2 |
| 20260831170430 | 95 | 266 | 3.0 | 4.0 | 0.00 | 0.00 | 0.00 | 49 | 1019.3 |
| 20260831165926 | 95 | 153 | 1.0 | 3.0 | 0.00 | 0.00 | 0.00 | 53 | 1019.4 |
| 20260831165422 | 95 | 316 | 1.0 | 3.0 | 0.00 | 0.00 | 0.00 | 53 | 1019.3 |
| 20260831164918 | 95 | 255 | 0.0 | 2.0 | 0.00 | 0.00 | 0.00 | 52 | 1019.5 |
| 20260831164414 | 94 | 104 | 0.0 | 2.0 | 0.00 | 0.00 | 0.00 | 54 | 1019.4 |
| 20260831163909 | 95 | 271 | 3.0 | 5.0 | 0.00 | 0.00 | 0.00 | 54 | 1019.6 |
| 20260831163405 | 95 | 269 | 1.0 | 2.0 | 0.00 | 0.00 | 0.00 | 55 | 1019.7 |
| 20260831162903 | 94 | 312 | 2.0 | 2.0 | 0.00 | 0.00 | 0.00 | 52 | 1019.5 |
| 20260831162359 | 95 | 336 | 1.0 | 2.0 | 0.00 | 0.00 | 0.00 | 50 | 1019.5 |
| 20260831161857 | 94 | 261 | 0.0 | 2.0 | 0.00 | 0.00 | 0.00 | 53 | 1019.5 |